Regional Weather Roundup
Issued by NWS

Home | Current Version | Previous Version | Text Only | Print | Product List | Glossary Off
Versions: 1 2 3 4 5 6 7 8 9 10 11 12 13 14 15 16 17 18 19 20 21 22 23 24 25 26 27 28 29 30 31 32 33 34 35 36 37 38 39 40 41 42 43 44 45 46 47 48 49 50

000
ASUS43 KMPX 110201
RWRMN
WEATHER ROUNDUP FOR MINNESOTA
NATIONAL WEATHER SERVICE TWIN CITIES/CHANHASSEN MN
800 PM CST SUN DEC 10 2017


NOTE: "FAIR" INDICATES FEW OR NO CLOUDS BELOW 12,000 FEET WITH NO
SIGNIFICANT WEATHER AND/OR OBSTRUCTIONS TO VISIBILITY. N/A MEANS
CURRENT SKY AND/OR WEATHER CONDITIONS ARE NOT AVAILABLE.

MNZ060>063-068>070-110300-
   Twin Cities Metro

CITY           SKY/WX    TMP DP  RH WIND       PRES   REMARKS
TWIN CITIES    MOCLDY    27  21  78 S5        30.03F WCI  22
ST PAUL        CLOUDY    21  20  96 S3        30.05F
CRYSTAL        CLOUDY    18  14  84 CALM      30.01F FOG
BLAINE         CLEAR    N/A N/A N/A CALM      30.01F
LAKEVILLE      CLOUDY    16  16 100 CALM      30.03F FOG
EDEN PRAIRIE   CLEAR     24  19  81 S5        30.02F WCI  18
SOUTH ST PAUL  CLOUDY    20  19  93 CALM      30.03F
LAKE ELMO      FAIR      18  16  93 CALM      30.03F
$$
MNZ001>005-007-008-013>017-022>024-027-028-110300-
   Northwest Minnesota

CITY           SKY/WX    TMP DP  RH WIND       PRES   REMARKS
BEMIDJI        CLOUDY    17  15  89 S3        29.93S
HALLOCK        LGT SNOW  25  21  86 S14       29.86F WCI  13
ROSEAU         CLOUDY    19  16  86 S8        29.90F WCI   9
WARROAD        CLOUDY    18  12  79 SW6       29.92S WCI   9
CROOKSTON      CLOUDY    23  21  93 S9        29.94F WCI  13
FOSSTON        CLOUDY    19  18  93 S7        29.93F WCI  10
DETROIT LAKES  CLOUDY    23  21  93 S3        29.94S
MOORHEAD       CLOUDY    27  21  80 CALM      29.95F
PARK RAPIDS    CLOUDY    20  15  81 S5        29.92F WCI  13
MAHNOMEN       CLOUDY    22  19  89 S7        29.92F WCI  14
$$
MNZ006-009>011-018-025>026-110300-
   North Central Minnesota

CITY           SKY/WX    TMP DP  RH WIND       PRES   REMARKS
BAUDETTE       CLOUDY    15  12  88 SE7       29.90F WCI   5
FLAG ISLAND    CLOUDY    12  10  92 S7        29.90R WCI   2
INTL FALLS     CLOUDY     4   1  88 CALM      29.94F
WASKISH        CLOUDY    19  18  93 CALM      29.92F
BIG FORK       CLOUDY     9   7  92 CALM      29.94S
GRAND RAPIDS   PTCLDY    17  14  88 CALM      29.96F
ORR            CLOUDY     9   5  85 CALM      29.91F
COOK           CLOUDY     3   1  92 CALM      29.94F
WALKER         FAIR      18  14  85 CALM      29.93F
$$
MNZ012-019>021-037-110300-
   Northeast Minnesota

CITY           SKY/WX    TMP DP  RH WIND       PRES   REMARKS
DULUTH         MOCLDY    11   9  92 SE3       29.95F
ELY            CLOUDY     0  -4  85 CALM      29.95S
HIBBING        CLOUDY     5   3  91 CALM      29.95F
EVELETH        CLOUDY     1  -4  78 CALM      29.97F
DULUTH HARBOR  CLOUDY    19  14  79 CALM      30.03F
TWO HARBORS    CLEAR     10   5  79 CALM      29.97S
G MARAIS ARPRT CLEAR      1  -4  78 NW3       29.90F
$$
MNZ029>031-032-039>041-046>048-054>057-064-110300-
   West Central Minnesota

CITY           SKY/WX    TMP DP  RH WIND       PRES   REMARKS
FERGUS FALLS   CLOUDY    27  21  80 SE3       29.98S
MORRIS         CLOUDY    30  23  74 S5        29.95F WCI  25
ALEXANDRIA     CLOUDY    24  20  84 S3        29.95F
ELBOW LAKE     CLOUDY    27  22  82 E6        29.96F WCI  21
WADENA         CLOUDY    19  18  93 SW5       29.94S WCI  13
GLENWOOD       CLOUDY    27  21  80 S3        29.96F
BENSON         CLOUDY    30  25  80 SW3       30.00S
ORTONVILLE     CLOUDY    32  23  69 S7        29.96F WCI  26
MADISON        CLOUDY    36  28  75 S6        29.97F
WILLMAR        CLOUDY    30  25  80 CALM      29.99F
$$
MNZ033>034-036-042>043-049>051-058-059-110300-
   Central Minnesota

CITY           SKY/WX    TMP DP  RH WIND       PRES   REMARKS
ST CLOUD       CLOUDY    19  16  88 CALM      29.99F
SAUK CENTRE    FAIR      22  19  89 CALM      29.97F
PAYNESVILLE    CLOUDY    22  20  91 CALM      29.98F
AITKIN         CLOUDY    12  10  92 CALM      29.95F
PINE RIVER     CLOUDY    16  12  86 CALM      29.98F
BRAINERD       CLOUDY    19  15  84 CALM      29.96F
STAPLES        CLOUDY    19  18  93 CALM      29.95F
LONG PRAIRIE   FAIR      19  18  93 SE3       29.96F
LITTLE FALLS   CLOUDY    21  14  73 CALM      29.96F
LITCHFIELD     CLOUDY    27  21  80 CALM      30.00F
BUFFALO        CLOUDY    19  16  88 CALM      30.02F
MAPLE LAKE     CLOUDY    20  18  95 CALM      30.01F
HUTCHINSON     CLOUDY    24  22  92 CALM      30.02F
$$
MNZ037-044-045-052-053-110300-
   East Central Minnesota

CITY           SKY/WX    TMP DP  RH WIND       PRES   REMARKS
PRINCETON      CLOUDY    18  16  93 CALM      29.99F
MORA           CLEAR     16  14  93 CALM      30.01F
CAMBRIDGE      CLOUDY    18  12  79 CALM      30.01F
RUSH CITY      CLEAR     15  13  93 CALM      30.01F
MOOSE LAKE     CLOUDY    16  14  93 CALM      29.97F
HINCKLEY       FAIR      18  16  93 CALM      30.00F
CLOQUET        CLOUDY    16  12  86 CALM      29.97F
MCGREGOR       CLOUDY    18  14  86 CALM      29.97F
$$
MNZ071>073-080-081-089-090-097-098-110300-
   Southwest Minnesota

CITY           SKY/WX    TMP DP  RH WIND       PRES   REMARKS
MONTEVIDEO     CLOUDY    32  25  74 SW3       29.99F
GRANITE FALLS  CLOUDY    33  26  76 S5        30.02F WCI  29
CANBY          CLOUDY    33  28  81 E6        29.99F WCI  28
MARSHALL       CLOUDY    32  26  78 S6        30.00F WCI  26
REDWOOD FALLS  CLOUDY    32  25  75 S5        30.01F WCI  27
OLIVIA         CLOUDY    32  27  80 S3        29.99F
PIPESTONE      CLOUDY    32  28  86 SW6       29.99F WCI  26
WINDOM         CLOUDY    32  19  59 CALM      30.02F
WORTHINGTON    CLOUDY    34  28  79 SW7       30.02F WCI  28
JACKSON        CLOUDY    32  27  80 MISG      30.03S
TRACY          CLOUDY    33  28  82 S3        30.00F
$$
MNZ065>067-074>077-082>085-091>093-110300-
   South Central Minnesota

CITY           SKY/WX    TMP DP  RH WIND       PRES   REMARKS
MANKATO        MOCLDY    27  23  85 SE6       30.04F WCI  20
NEW ULM        CLOUDY    30  25  80 CALM      30.02F
ST JAMES       CLOUDY    30  27  86 S3        30.05F
FAIRMONT       CLOUDY    31  27  85 S3        30.05F
GLENCOE        CLOUDY    24  23  96 CALM      30.01F
FARIBAULT      CLOUDY    19  18  93 CALM      30.04F
WASECA         CLOUDY    19  18  93 SE3       30.05F
ALBERT LEA     CLOUDY    27  21  80 CALM      30.04F
$$
MNZ078>079-086>088-094>096-110300-
   Southeast Minnesota

CITY           SKY/WX    TMP DP  RH WIND       PRES   REMARKS
ROCHESTER      CLOUDY    24  20  84 W5        30.02F WCI  18
RED WING       CLOUDY    19  16  86 CALM      30.04F
STANTON        CLOUDY    19  17  90 SW5       30.03F WCI  12
DODGE CENTER   CLOUDY    19  18  93 CALM      30.03F
WINONA         CLOUDY    30  21  69 NW3       30.08R
AUSTIN         CLOUDY    25  21  86 CALM      30.04F
PRESTON        CLOUDY    26  20  79 NW3       30.05R
$$
ABBREVIATIONS USED IN REMARKS
   TC - TEMPERATURES IN CELSIUS
  WCI - WIND CHILL INDEX
   HX - HEAT INDEX
  VSB - VISIBILITY
$$




USA.gov is the U.S. government's official web portal to all federal, state and local government web resources and services.